Theta_e
281 280 280 279 278 278 277 276 276 276 276 275 275 275 275 275 275 275 274 274 274 274 274 274 274 274 274 274 274 274 274 274 274 274 274 274 275 276 276 275 275 276 277 278 277 278 278 279 279 280 280 280 280 281 282 282 283 284 284 285 286 287 287 288 289 290 291 292 293 294 295 297 301 304
280 280 279 279 278 277 277 276 276 276 276 275 275 275 275 275 275 274 274 274 274 274 274 274 274 274 273 273 274 274 274 274 274 274 274 275 275 276 275 275 275 276 276 276 276 276 277 278 278 279 280 280 280 281 281 282 283 283 284 284 285 286 287 287 289 290 290 291 292 293 295 297 300 303
280 280 279 278 278 277 276 276 276 276 275 275 275 275 275 275 275 274 274 274 274 273 273 273 273 273 273 273 274 274 274 274 274 274 274 275 275 275 274 274 274 275 275 275 275 275 276 277 277 278 279 279 280 280 281 281 282 283 283 284 284 285 286 287 288 289 289 291 292 293 294 296 299 302
280 280 279 278 277 277 276 276 276 276 275 275 275 275 275 274 274 274 274 273 273 273 273 273 273 273 273 273 274 274 274 274 274 274 274 275 275 274 274 274 274 275 275 275 275 275 275 276 276 277 278 278 279 280 280 281 281 282 283 283 284 285 286 286 287 288 289 290 292 293 294 295 297 300
280 279 279 278 278 277 276 276 276 275 275 275 275 274 274 274 274 274 274 273 273 273 273 273 273 273 272 273 274 274 274 274 274 274 274 274 274 274 273 274 274 275 275 274 275 275 275 276 276 276 277 278 279 279 280 280 281 281 282 282 283 284 285 286 287 288 288 290 291 292 293 294 296 300
280 279 279 278 278 277 276 276 275 275 275 275 275 274 274 274 274 274 274 273 273 273 273 273 273 273 272 273 274 274 274 274 273 273 274 274 274 273 273 273 274 275 274 274 274 275 275 276 276 277 277 278 279 279 280 280 280 281 282 282 283 284 284 285 286 287 288 289 290 291 292 294 296 299
280 279 278 278 278 277 276 275 275 275 275 275 274 274 274 274 274 274 273 273 273 273 273 273 273 273 272 272 273 274 273 273 273 273 273 273 273 273 273 273 273 274 274 274 274 274 275 275 276 276 277 278 279 279 280 280 280 281 281 282 283 283 284 284 284 286 287 288 289 290 291 293 296 299
280 279 278 278 278 277 276 275 275 275 275 274 274 274 274 274 274 273 273 273 273 273 273 273 272 272 272 272 273 273 273 272 272 273 273 273 273 273 272 272 273 274 274 273 273 273 274 275 275 275 276 277 278 278 279 280 280 281 281 281 282 282 282 283 283 284 285 286 288 289 291 293 296 299
279 279 279 278 277 276 275 275 275 275 274 274 274 274 274 274 273 273 273 273 273 273 273 272 272 271 271 272 272 272 272 272 273 273 273 272 272 272 272 272 272 273 273 273 273 273 274 275 275 275 275 276 276 277 278 279 279 280 280 280 280 280 281 282 283 283 284 285 287 288 290 293 296 299
280 279 279 278 277 276 275 275 275 274 274 274 274 274 274 273 273 273 273 273 273 273 272 271 271 271 271 271 271 271 272 272 272 272 272 272 271 271 271 271 272 273 273 273 272 273 274 275 275 275 276 276 275 276 276 277 278 278 279 279 279 280 280 281 281 282 283 284 286 287 289 292 295 297
279 279 279 278 277 276 275 275 275 274 274 274 274 274 273 273 273 273 273 273 273 272 272 271 271 270 271 271 271 272 272 272 272 272 272 271 271 270 270 271 272 272 272 272 272 273 274 274 275 275 276 276 275 275 275 276 277 277 278 278 279 279 280 280 281 282 282 283 285 286 289 291 293 296
279 279 279 278 277 276 275 275 274 274 274 273 273 273 273 273 273 273 273 273 273 272 271 271 270 270 270 271 271 272 272 272 272 271 270 270 270 270 270 270 271 272 272 272 273 273 273 273 274 275 276 276 276 276 275 276 276 277 278 278 279 279 280 280 281 281 282 283 284 285 288 290 292 296
279 279 279 278 277 276 275 274 274 274 273 273 273 273 273 274 274 273 273 273 273 272 271 271 270 270 270 271 272 272 272 271 271 270 269 269 270 270 270 270 271 271 272 272 272 273 272 272 272 273 275 276 276 276 276 276 276 277 278 278 279 279 279 280 281 281 282 282 283 284 287 289 292 296
279 279 279 278 277 276 275 274 274 273 273 274 274 275 275 274 274 274 274 273 272 272 271 271 271 271 271 272 272 272 271 271 270 269 269 269 270 269 269 271 272 272 271 271 271 272 271 271 271 271 272 274 276 276 276 276 276 277 277 278 278 279 279 280 280 281 281 282 282 283 285 288 291 296
279 279 279 278 277 276 275 274 274 273 274 274 275 276 275 274 274 274 273 273 272 272 271 271 271 271 272 272 271 271 271 270 269 269 269 269 269 269 268 270 272 272 271 271 271 271 271 270 270 270 271 272 274 276 276 276 276 276 277 278 278 279 279 280 280 281 282 282 282 283 284 286 290 296
279 279 278 278 277 276 274 274 274 273 274 274 275 275 274 274 273 273 273 272 272 271 271 271 271 272 272 271 271 270 270 269 269 268 269 268 268 268 268 268 270 271 271 270 270 271 271 270 270 271 271 271 273 275 276 276 276 276 276 277 278 278 279 280 280 281 282 282 282 283 284 285 288 293
279 279 278 278 277 276 274 274 273 273 273 274 274 274 274 273 273 272 272 272 271 271 271 271 272 272 271 270 270 270 269 269 269 268 268 268 268 268 268 268 269 270 270 269 269 270 271 270 270 272 272 272 273 274 275 275 276 276 276 277 278 278 278 279 280 281 281 282 282 283 284 285 286 290
279 279 278 278 276 275 274 273 273 273 273 274 274 274 273 273 272 272 272 271 271 271 271 271 271 270 270 269 269 269 269 268 268 268 268 268 268 268 269 269 269 270 270 268 268 269 271 271 271 272 274 274 274 275 275 275 276 276 277 277 278 278 278 279 280 281 281 282 282 283 283 284 286 290
279 279 278 277 276 275 274 273 273 273 273 274 273 273 273 273 272 272 272 271 270 270 270 269 269 269 269 269 269 269 268 268 268 268 268 268 268 268 269 269 270 271 271 269 267 268 270 270 270 272 274 273 274 275 275 275 275 276 276 277 277 278 278 279 280 281 281 282 282 283 283 284 285 290
279 278 278 277 276 275 274 273 273 274 274 273 273 273 273 273 272 272 271 271 270 270 270 269 269 269 269 269 269 269 269 269 269 268 268 269 269 268 268 270 271 272 271 269 267 267 269 270 270 272 273 273 273 274 275 275 275 276 276 277 278 278 278 279 280 281 281 282 282 283 283 284 285 289
278 278 278 276 275 274 274 274 274 274 273 273 273 273 273 273 272 272 271 271 270 270 270 270 270 270 270 270 270 270 270 270 269 268 269 270 269 268 268 270 271 271 270 270 268 267 268 271 271 271 272 272 273 274 275 275 276 276 277 277 278 278 279 279 280 281 282 282 282 283 283 283 285 289
278 278 277 276 275 274 274 274 273 273 273 273 273 273 272 272 272 272 272 271 271 271 271 271 271 271 271 271 271 271 271 271 270 269 269 270 269 268 269 269 270 271 272 272 270 268 270 271 271 270 271 272 273 274 275 276 276 277 277 278 278 279 279 280 281 281 282 282 282 283 284 284 284 288
278 278 277 276 275 274 274 273 273 273 273 273 273 272 272 271 272 272 272 272 272 272 272 272 272 272 272 272 272 272 271 271 270 270 270 270 270 269 269 268 267 268 272 273 270 268 269 269 269 270 269 270 272 274 275 276 276 277 278 279 279 279 280 280 281 281 281 282 282 283 284 284 284 287
278 277 277 276 275 274 273 273 273 273 273 273 272 272 271 271 272 272 273 272 272 272 272 273 273 273 273 273 273 273 272 272 271 271 271 271 271 269 269 269 266 266 272 275 270 267 268 268 269 270 269 268 271 274 276 276 276 277 278 279 280 280 280 281 281 281 282 282 282 284 286 285 284 287
278 278 277 276 275 274 273 273 273 273 273 272 272 272 272 272 272 272 272 272 272 272 273 273 273 273 273 274 274 273 273 273 272 272 272 272 271 270 269 269 266 266 273 276 270 267 267 268 268 269 269 268 270 272 275 277 277 278 279 280 281 280 280 281 281 282 282 282 282 285 287 286 285 287
278 277 277 275 274 273 273 273 273 273 272 272 272 272 272 272 272 272 272 272 272 272 273 273 273 273 274 274 274 274 274 273 273 273 273 272 272 271 270 268 266 267 272 274 270 268 268 268 268 268 269 269 270 270 273 276 279 280 281 281 282 281 280 281 282 282 282 282 283 286 287 286 285 287
278 277 276 274 273 273 273 273 273 273 273 273 273 272 272 272 272 272 272 272 273 273 273 273 273 274 274 274 274 274 274 274 274 273 273 273 273 273 272 270 268 269 270 271 271 270 269 269 269 269 269 270 270 270 272 275 279 281 281 282 283 282 281 281 282 282 282 282 283 286 288 287 285 287
277 276 275 274 273 273 273 273 273 273 273 273 273 273 273 272 272 272 272 273 273 273 273 273 273 274 274 274 274 274 273 274 274 274 273 274 274 274 272 270 270 271 271 271 272 271 270 270 270 270 270 270 270 271 273 276 278 280 281 283 284 282 281 281 282 282 282 282 284 287 288 287 285 287
276 275 274 273 273 273 273 273 274 274 273 273 273 273 273 273 273 273 273 273 273 273 273 273 273 273 273 273 273 273 273 273 274 274 274 274 275 276 274 273 271 272 273 273 273 272 272 272 272 272 272 272 272 272 274 276 278 280 281 282 283 283 281 281 281 281 282 285 287 288 287 286 286 289
276 274 273 273 273 273 273 274 274 273 273 273 274 273 273 273 273 273 273 273 273 273 273 273 273 273 273 273 273 273 273 273 273 274 274 275 275 276 277 276 275 274 274 275 275 275 275 275 274 274 274 275 275 275 276 276 278 281 282 283 284 284 282 280 281 283 285 288 289 288 286 285 286 289
275 274 273 273 273 273 274 274 273 273 274 274 273 273 273 273 273 273 273 273 273 273 273 273 273 273 273 273 273 273 273 273 273 273 273 274 274 275 276 277 278 277 276 276 276 276 276 275 275 275 276 277 277 277 277 276 277 280 284 285 286 286 284 283 284 287 289 289 289 288 286 285 286 289
275 274 273 273 274 274 274 274 274 274 274 274 273 273 273 273 273 273 273 273 273 273 273 273 273 273 273 273 274 274 273 273 273 273 273 273 274 274 275 275 277 278 278 278 278 278 277 276 275 275 276 277 277 277 277 276 276 279 284 287 288 288 287 286 287 289 290 290 290 289 287 285 287 290
274 273 274 274 274 274 274 274 274 274 274 274 273 273 273 273 273 273 272 272 273 273 273 273 273 273 273 273 273 274 274 273 273 273 273 273 273 274 274 274 274 276 277 278 278 279 279 278 277 276 277 277 278 278 278 278 279 281 285 289 290 289 288 288 289 290 290 291 291 291 289 287 288 290
274 274 274 274 274 274 274 274 274 274 274 274 273 273 273 273 273 272 272 273 273 273 273 273 273 273 273 273 273 273 273 273 273 273 273 273 273 273 273 274 274 275 276 276 277 278 279 280 279 278 277 278 278 279 280 280 282 284 287 290 291 290 289 290 291 291 291 292 293 293 292 291 291 292
274 274 274 274 274 274 274 274 274 274 274 274 273 273 273 273 273 273 273 273 273 273 273 273 273 273 273 273 273 273 273 273 273 273 273 273 273 273 273 273 274 275 275 276 277 278 279 280 280 280 279 279 279 280 281 282 282 284 286 289 290 290 290 292 292 292 292 293 294 294 294 294 294 294
274 274 274 274 274 274 274 274 274 274 274 274 273 273 273 273 273 273 273 273 273 273 273 273 273 273 272 272 272 272 272 272 273 273 273 273 273 273 273 273 273 274 275 275 276 277 278 279 280 280 280 279 279 279 280 280 281 283 285 287 289 290 291 292 293 293 293 293 294 294 294 294 295 295
274 274 274 274 274 274 274 274 274 274 274 274 273 273 273 273 273 273 273 273 273 273 273 273 273 273 272 272 272 272 272 272 272 272 273 273 273 273 273 273 273 273 273 274 275 276 278 278 279 279 279 278 277 276 277 278 280 282 284 286 287 290 291 292 292 292 292 292 292 293 293 294 294 295
274 274 274 274 274 274 274 274 274 274 274 274 273 273 273 273 273 273 273 273 273 273 273 273 273 273 272 272 272 272 272 272 272 272 272 272 273 272 272 273 273 272 272 273 274 275 276 277 278 278 277 276 275 274 276 277 279 281 282 284 285 287 289 290 291 291 291 291 292 292 293 294 294 295
274 274 274 274 274 274 275 275 274 274 274 273 273 273 273 273 273 273 273 273 273 273 273 273 273 273 272 272 272 272 272 272 271 271 271 271 272 272 272 272 272 272 272 272 273 274 275 276 276 277 277 276 275 274 275 275 276 278 280 282 284 286 287 288 289 290 291 292 293 293 293 294 295 295
274 274 274 274 274 274 274 275 274 274 274 273 273 273 273 273 273 273 273 273 273 273 273 273 273 273 272 272 272 272 272 272 271 271 271 271 271 271 272 272 272 272 272 272 272 273 273 274 275 275 276 276 276 276 277 277 277 278 280 281 283 284 285 286 287 290 291 292 293 293 294 294 295 295
274 274 274 274 274 274 274 274 274 274 274 274 274 274 273 273 273 273 273 273 273 273 273 273 273 273 272 272 272 272 272 272 271 271 271 271 271 271 271 272 272 272 272 272 272 272 272 272 273 274 275 276 278 279 279 279 279 279 279 279 280 282 284 285 286 287 289 291 292 294 294 294 294 294
274 274 274 274 274 274 274 274 274 274 274 274 274 274 274 273 273 273 273 273 273 273 273 273 273 272 272 272 272 272 272 272 271 271 271 271 271 271 271 271 271 271 271 271 271 271 272 272 273 274 275 276 278 279 278 277 278 279 279 279 279 280 282 284 285 285 287 290 292 292 293 293 294 293
274 274 274 274 274 274 274 274 274 274 274 274 274 274 274 273 273 273 273 273 273 273 273 273 273 272 272 272 272 272 272 271 271 271 271 271 271 270 270 271 271 271 271 271 271 271 272 272 273 273 274 275 276 276 276 276 277 279 279 279 280 280 281 282 283 283 285 287 289 290 290 291 291 291
274 274 274 274 274 274 274 274 274 274 274 274 274 274 274 273 273 273 273 273 273 273 272 272 272 272 272 272 272 272 271 271 271 271 271 270 270 270 270 270 270 271 271 272 272 272 272 272 272 273 273 273 274 274 274 274 275 277 278 279 280 281 281 281 282 283 284 286 287 287 287 288 289 289
274 274 274 274 273 273 274 274 274 274 274 274 274 274 274 273 273 273 273 273 272 272 272 272 272 272 272 272 271 271 271 271 271 271 271 270 270 270 270 270 270 270 271 271 272 272 272 272 272 273 272 272 273 273 273 273 274 275 277 278 279 280 280 281 282 283 284 284 285 285 285 286 287 288
Wind_Speed
33 32 31 31 30 29 28 29 28 27 27 25 24 24 24 26 29 31 31 28 27 29 29 31 34 34 33 35 37 38 39 39 40 41 40 39 38 35 32 31 31 32 33 34 37 38 38 38 39 39 40 41 42 43 42 41 41 42 42 42 42 43 44 42 41 40 38 35 34 35 31 23 17 13
33 33 32 31 30 29 29 29 28 27 28 26 25 25 25 26 28 30 35 36 30 28 31 33 35 37 38 39 40 40 40 41 40 40 39 38 36 33 32 31 32 33 35 37 39 39 39 39 39 39 40 41 43 43 43 41 41 41 41 42 42 41 42 42 41 39 38 36 34 35 32 23 18 12
33 33 32 31 30 30 30 29 28 28 28 26 25 25 25 26 30 30 33 39 37 31 34 39 38 39 41 42 42 41 41 41 41 39 38 37 34 32 33 34 36 37 37 38 38 37 37 37 38 39 40 41 43 44 44 43 43 42 41 42 43 41 41 41 40 39 38 36 34 34 32 27 22 15
33 33 33 32 30 30 30 29 29 28 28 27 26 25 26 28 31 32 31 38 44 40 39 42 42 41 43 44 43 42 42 42 41 38 37 36 34 33 36 39 41 40 39 36 34 33 34 35 36 37 38 40 42 43 44 44 44 43 42 43 43 41 40 40 39 39 37 36 35 33 31 29 25 14
33 33 33 32 30 30 30 29 28 28 28 27 27 26 28 29 31 32 31 36 45 46 42 41 44 44 44 45 44 42 43 43 41 38 36 35 34 36 40 43 42 40 39 37 33 32 31 32 34 35 36 37 39 40 42 44 44 42 41 42 42 41 40 39 38 38 37 35 35 33 30 29 24 13
33 33 33 33 31 30 30 29 28 29 28 28 28 27 28 31 31 31 32 34 40 46 45 43 45 46 45 45 45 43 43 44 41 37 35 34 35 40 44 44 43 42 40 38 36 34 32 32 33 34 35 36 37 38 39 41 41 40 39 39 41 40 40 39 38 37 36 34 34 32 29 28 23 14
33 34 34 33 31 30 30 29 28 29 29 28 28 29 29 31 31 30 31 33 36 43 46 45 46 48 47 46 46 44 43 42 38 35 34 36 40 44 45 43 43 43 41 40 38 36 34 34 34 34 35 35 35 36 36 37 38 38 37 37 38 39 39 39 39 38 35 33 33 33 31 29 25 19
33 34 35 33 30 29 29 28 28 29 30 29 28 30 30 30 31 30 29 31 35 40 45 47 47 47 48 47 45 44 43 39 33 32 36 42 45 46 44 43 43 44 43 41 39 37 37 38 36 34 34 35 34 34 34 34 36 36 36 36 37 38 38 38 39 40 37 34 32 31 33 34 31 26
33 34 34 31 29 28 28 28 28 29 29 29 29 30 30 30 29 29 29 31 34 37 42 47 48 45 45 46 45 42 38 34 31 34 41 46 46 46 44 42 43 44 44 42 41 42 43 42 38 34 33 35 35 36 35 34 34 34 34 36 37 40 41 39 39 41 40 37 34 32 34 38 35 32
33 33 33 30 28 28 29 28 28 28 28 28 29 29 30 29 28 28 29 31 33 35 39 43 44 43 44 44 45 40 31 29 34 43 50 50 45 44 44 44 44 44 44 43 44 45 45 43 39 36 33 33 35 37 37 37 37 36 35 37 39 42 44 44 42 41 40 39 38 37 37 39 36 32
33 32 31 29 28 27 28 28 27 27 28 27 28 29 28 27 26 28 29 31 32 35 38 38 36 40 44 42 40 36 28 31 41 48 54 56 52 47 45 44 46 46 46 47 47 46 44 42 39 37 34 33 34 36 37 37 36 36 36 37 39 40 43 45 44 42 40 38 37 38 39 40 36 31
32 32 30 28 27 27 26 26 26 26 27 27 27 28 26 24 25 27 29 30 32 34 38 37 32 35 40 37 34 33 34 41 49 48 49 54 57 53 47 43 44 49 51 51 49 45 42 42 43 41 37 33 33 34 36 38 38 37 37 38 40 41 42 44 44 42 41 39 36 37 39 40 37 31
31 31 30 27 26 26 25 25 25 25 25 25 26 25 24 23 24 26 27 30 32 34 37 36 32 32 35 34 34 39 43 48 51 48 46 50 52 50 49 49 48 50 52 49 47 44 40 42 46 44 41 36 32 32 34 36 39 39 39 39 39 41 42 43 42 41 40 40 38 37 39 40 37 32
31 30 29 26 25 25 24 24 25 24 23 23 24 24 24 23 23 25 28 30 31 33 37 37 34 34 36 37 39 45 49 49 49 47 44 44 46 46 51 58 54 46 43 41 43 46 42 40 44 43 43 42 36 33 33 34 36 37 38 38 38 39 41 42 41 40 39 38 36 35 36 39 38 32
31 29 27 25 24 24 24 24 24 24 23 22 22 22 22 22 22 24 27 29 31 33 36 36 34 35 39 42 43 47 50 49 45 42 38 39 45 47 50 56 54 46 40 39 47 53 47 41 44 46 45 44 40 36 33 32 33 35 36 37 38 38 40 40 39 38 38 37 34 33 34 36 40 36
30 29 26 25 24 23 23 23 23 24 24 23 23 24 25 25 26 27 27 29 31 33 34 35 35 36 41 45 46 46 47 44 40 39 40 43 47 48 47 50 52 49 43 42 50 59 54 46 48 51 48 45 42 39 34 31 31 32 34 36 37 37 38 38 38 37 37 37 34 33 33 34 40 42
29 27 25 24 24 23 22 22 23 24 24 24 26 28 29 30 31 31 31 31 30 29 31 35 37 38 41 44 45 42 39 39 41 43 46 47 46 45 44 47 53 53 48 45 51 62 60 51 48 50 47 43 41 38 34 31 29 30 32 34 35 36 36 36 37 36 36 37 34 32 33 34 38 44
27 26 24 23 23 22 21 22 24 24 23 24 27 29 30 31 31 31 32 31 29 27 28 33 37 38 38 39 40 39 37 40 44 46 47 46 44 46 48 51 55 56 52 47 49 58 59 48 44 47 43 39 38 35 32 30 28 28 30 32 34 35 35 35 36 36 37 37 35 33 34 35 38 43
25 24 23 21 21 21 21 22 23 23 23 25 27 27 28 28 29 29 28 26 25 25 27 32 35 36 35 35 37 39 40 42 44 44 45 46 47 50 53 54 55 54 51 44 41 50 55 46 40 42 37 33 33 32 30 29 27 27 28 31 34 35 35 35 35 36 37 37 35 33 35 36 38 42
23 22 21 20 20 20 20 21 21 21 23 24 25 25 25 26 26 26 24 22 23 25 28 30 31 31 32 33 36 38 39 41 42 42 44 45 46 47 49 53 54 51 49 43 37 43 49 41 34 35 31 29 31 31 29 28 26 26 28 30 34 35 36 36 36 37 38 37 34 33 35 36 38 41
21 20 19 18 18 19 19 19 19 20 21 22 23 23 24 25 24 23 22 23 24 26 26 26 27 29 30 32 34 34 35 36 37 39 43 43 42 42 45 52 54 50 50 46 37 36 39 31 27 31 32 31 34 35 33 30 26 24 26 29 33 36 37 37 36 37 39 37 34 33 35 36 37 39
20 19 18 16 17 17 17 18 17 18 19 20 20 21 22 21 21 21 22 23 22 21 21 22 24 26 28 30 31 31 32 32 32 35 39 39 38 39 41 46 49 52 53 43 26 22 29 28 26 30 34 37 39 37 31 25 19 17 20 25 31 35 37 37 36 37 38 38 35 33 33 34 35 38
21 19 18 17 17 16 16 16 16 16 17 18 18 18 18 18 19 20 20 20 19 20 21 22 23 25 27 29 30 30 30 29 29 31 33 34 35 36 38 39 40 46 50 38 21 21 30 32 31 30 31 35 38 33 24 18 16 14 14 18 25 32 36 36 36 37 38 38 36 32 31 32 34 37
22 20 19 18 17 16 15 15 15 14 14 14 15 15 15 16 18 17 16 17 19 21 21 22 24 26 27 27 28 28 27 27 27 27 28 29 30 32 36 36 35 40 45 38 30 32 36 35 36 33 28 29 34 34 27 23 22 19 15 15 20 27 32 34 36 37 37 38 36 31 28 31 35 38
21 20 19 18 16 15 15 15 13 12 11 11 12 13 14 15 17 15 15 17 17 18 20 21 23 25 25 25 25 26 25 25 24 24 24 26 26 28 32 34 34 40 40 34 30 35 38 36 36 36 31 30 34 36 34 29 23 17 14 14 17 23 28 32 34 35 37 37 35 30 27 31 37 40
20 19 18 16 15 15 15 14 12 11 10 10 11 12 12 13 13 13 14 15 15 16 18 20 21 23 24 25 26 26 26 24 22 21 21 22 23 25 27 28 31 38 38 31 27 30 34 35 34 33 34 33 32 33 35 30 19 11 11 12 14 18 24 28 31 34 36 37 37 32 29 32 38 41
19 18 17 16 15 15 14 13 11 11 11 9 8 9 10 10 10 10 11 12 14 16 17 18 20 22 24 26 27 28 28 26 24 21 20 20 21 23 23 21 24 31 33 29 23 22 26 31 31 30 32 33 32 34 37 32 20 13 11 10 10 15 21 24 28 32 34 36 36 33 29 31 37 40
17 17 16 15 14 14 13 13 12 11 9 7 6 7 7 7 7 8 9 11 13 14 16 18 20 22 24 25 27 28 28 28 27 24 21 20 20 22 22 17 16 20 22 20 17 15 20 27 29 30 31 31 33 36 37 33 26 20 15 11 9 13 20 23 26 29 32 33 32 29 29 32 37 39
15 15 15 15 14 14 14 12 10 9 7 5 5 6 5 5 6 7 8 10 12 14 16 18 20 22 23 24 25 27 27 28 28 28 25 23 22 23 23 18 12 12 13 13 13 12 14 19 22 24 26 28 31 34 34 32 28 21 17 14 12 14 19 22 24 26 27 27 27 28 31 35 40 40
16 16 16 16 15 15 13 11 9 8 6 5 5 5 4 4 5 7 8 10 12 14 16 18 20 21 22 23 24 26 27 28 29 30 29 27 25 25 26 23 17 13 11 11 13 13 14 16 17 17 18 21 24 26 27 29 26 19 14 12 11 14 18 20 23 24 23 22 24 27 30 34 38 40
18 18 17 17 15 14 12 11 10 8 7 6 6 5 4 3 5 7 8 10 12 14 16 18 19 21 22 23 24 25 27 29 30 31 32 32 30 29 29 30 27 22 16 11 9 11 12 12 11 11 11 11 12 13 14 17 19 15 9 7 12 13 16 20 24 23 20 19 21 24 27 31 36 36
20 19 16 16 14 13 12 12 10 9 8 7 6 4 2 3 5 6 8 10 11 13 15 17 19 21 22 24 25 26 27 29 31 32 33 33 33 32 32 33 34 32 26 16 7 5 7 11 15 15 12 9 6 5 6 7 8 9 4 9 16 14 15 21 23 20 18 18 18 20 24 30 34 33
19 18 15 14 14 14 14 13 11 10 8 7 6 4 1 2 4 6 7 8 10 12 15 17 19 21 23 24 26 27 28 29 31 32 33 34 35 34 34 34 35 36 36 30 19 9 4 5 9 14 18 18 15 12 13 14 14 15 14 16 20 17 16 20 20 17 17 18 18 19 22 27 31 30
17 17 15 15 15 14 14 13 11 10 9 7 6 3 1 2 4 5 6 8 10 12 15 17 20 22 23 25 26 27 28 30 31 32 33 35 36 36 36 35 35 35 36 36 31 22 14 7 5 4 5 11 17 22 22 20 21 22 20 21 21 20 19 20 19 19 19 19 20 21 21 23 25 25
17 17 16 16 16 16 16 14 12 11 9 7 5 3 1 2 3 4 5 7 10 12 14 17 19 21 23 24 26 27 28 30 31 32 34 34 36 37 38 37 36 35 35 36 35 32 27 19 10 5 5 7 14 21 24 23 23 23 21 21 21 20 19 18 17 19 20 20 21 22 21 21 21 22
16 16 16 16 16 17 16 15 13 12 10 7 5 3 2 3 2 3 4 6 9 12 15 17 19 21 23 24 25 27 28 29 31 32 34 35 36 37 38 38 37 35 35 35 35 34 32 29 23 19 18 19 20 22 25 26 25 23 22 20 18 18 17 15 14 14 14 15 18 20 20 20 20 19
16 16 15 16 17 17 16 15 14 12 9 7 5 4 4 3 2 2 4 6 9 12 14 17 19 21 22 24 25 26 28 29 30 32 34 35 36 37 38 38 38 37 35 34 33 33 34 33 30 27 26 27 27 25 24 26 26 23 22 21 18 16 14 13 13 14 14 13 14 14 16 19 21 19
17 17 17 17 18 18 17 16 14 11 9 7 6 5 4 3 2 1 4 6 9 11 13 16 18 20 22 24 25 27 28 29 30 31 33 34 36 37 38 38 38 39 37 35 34 34 35 34 32 29 27 27 26 24 23 26 27 24 21 20 19 16 15 13 14 15 14 13 14 13 12 15 19 20
18 17 17 18 19 19 18 16 14 11 9 8 7 6 5 4 2 1 4 6 8 10 12 14 17 19 21 23 25 26 28 29 30 31 32 33 34 35 37 37 38 38 39 38 37 37 37 37 34 30 25 21 20 20 22 24 26 24 20 18 18 17 16 14 12 14 15 14 14 14 12 11 14 17
19 18 17 18 18 19 18 16 13 11 10 9 8 7 6 4 2 0 3 5 6 9 11 13 15 18 20 22 24 25 27 28 30 30 31 31 32 33 34 35 36 37 38 40 40 39 39 37 35 32 26 19 15 16 19 20 21 20 20 20 18 16 15 15 13 12 15 15 14 15 14 12 12 14
20 19 19 19 19 19 18 16 14 13 11 10 9 8 6 4 3 1 1 3 5 8 10 12 14 16 19 21 23 25 26 27 28 30 30 30 31 32 32 33 34 36 37 39 39 39 37 34 31 29 27 22 18 18 21 22 22 21 22 22 20 17 15 15 14 12 13 16 18 17 15 13 13 14
20 20 19 20 20 20 18 16 15 13 12 11 10 8 7 5 4 2 1 2 5 7 9 11 13 15 17 20 22 24 25 27 28 29 30 30 31 31 32 32 33 34 36 36 36 35 34 31 29 28 27 27 25 25 27 28 26 22 21 21 20 18 16 15 15 13 12 15 18 18 16 14 13 14
20 19 19 20 20 20 19 17 15 14 13 12 11 9 7 6 5 4 2 2 4 6 8 10 12 14 16 18 20 22 24 26 27 28 29 30 30 31 31 31 31 31 31 32 32 31 31 31 30 30 30 30 30 30 29 28 25 23 22 21 19 17 16 15 14 13 11 10 14 16 16 15 13 11
19 19 19 19 20 21 20 18 16 15 14 13 11 10 8 7 6 5 4 3 4 5 7 9 11 13 15 17 19 21 23 24 26 27 27 28 29 29 29 29 30 30 29 29 29 29 30 31 31 31 32 32 32 30 30 28 26 24 23 23 21 18 16 15 13 12 12 10 10 11 13 14 15 13
18 19 19 19 20 21 20 18 17 16 15 14 12 10 9 8 7 6 5 4 4 5 6 8 10 12 13 15 17 19 22 23 24 25 26 26 27 27 28 28 28 29 29 30 30 29 29 30 30 31 31 31 30 29 30 29 27 24 22 23 23 22 20 18 15 13 13 12 11 10 10 10 10 10
Wind_Direction
255 257 258 259 261 263 262 261 261 261 259 258 260 261 264 271 278 287 291 287 286 290 292 296 302 304 304 305 307 308 308 308 308 309 308 309 307 305 308 307 298 295 295 292 290 289 285 280 276 272 269 266 264 265 266 271 273 270 271 272 271 271 272 273 276 280 282 279 283 285 281 286 291 291
255 256 258 259 260 261 260 260 260 259 257 257 257 259 263 267 270 279 287 286 284 286 288 292 298 301 303 304 306 306 306 307 308 307 308 308 306 308 311 306 297 294 294 293 291 288 284 281 277 273 270 267 264 264 263 267 272 271 272 270 269 272 273 273 277 280 281 278 281 283 277 283 292 293
254 256 258 258 260 261 260 260 259 257 256 255 257 259 262 266 270 275 281 282 282 283 287 292 296 299 302 304 305 305 306 306 307 306 308 308 308 310 309 305 302 301 299 296 293 289 284 281 278 273 270 267 264 261 259 262 267 269 271 268 265 271 273 273 276 277 279 276 278 280 274 282 291 283
254 256 258 259 260 261 260 259 258 257 255 254 255 259 263 266 271 276 276 276 279 282 287 293 297 299 301 303 304 305 306 306 306 307 308 309 309 309 308 308 308 306 304 302 298 294 288 282 279 275 271 267 263 260 258 259 262 265 269 265 263 269 271 272 273 273 276 274 274 278 272 279 290 275
254 256 258 259 260 259 259 258 257 256 254 254 254 258 264 267 271 274 273 274 279 285 289 294 298 300 301 302 303 306 307 306 307 309 309 309 309 308 307 308 309 308 307 306 304 303 297 287 281 277 274 271 266 263 259 257 259 263 267 265 263 269 269 269 271 269 272 272 269 275 271 273 283 264
254 256 257 258 259 258 258 257 257 256 253 253 255 257 263 268 272 273 273 275 280 286 292 296 298 300 301 301 304 307 307 306 308 308 308 307 305 305 307 307 309 309 308 306 305 305 300 292 285 279 275 273 270 267 264 260 259 261 265 265 265 268 268 267 269 266 267 269 267 271 272 270 271 252
253 256 256 257 258 257 257 256 255 255 254 252 255 259 263 268 273 273 272 275 279 285 292 296 297 300 300 301 304 306 306 307 308 305 302 301 302 306 307 306 307 308 308 307 305 301 296 293 288 281 276 274 271 269 267 263 261 260 262 265 264 267 268 268 268 266 265 265 264 266 267 264 258 246
252 255 255 257 258 257 256 256 255 254 254 254 256 259 264 269 273 273 271 275 281 285 290 293 295 298 299 301 303 306 308 308 303 297 297 301 304 307 307 304 306 308 307 306 304 301 299 299 294 284 276 273 270 269 267 264 262 261 259 262 264 264 267 269 266 265 265 263 262 263 260 254 248 242
249 252 255 256 257 256 255 254 254 254 254 255 257 259 265 271 272 272 274 278 281 284 287 291 294 297 298 300 304 307 308 303 297 295 299 304 305 306 306 304 305 308 308 306 305 305 305 305 302 293 280 271 266 264 264 263 261 259 258 259 262 260 260 263 262 260 261 260 259 259 254 248 244 241
246 249 252 254 254 253 254 254 254 255 255 255 256 259 266 272 272 274 278 280 281 283 286 289 292 294 296 299 303 305 302 294 296 301 304 306 305 305 306 306 306 308 308 307 307 306 306 306 303 298 288 276 267 260 258 260 259 258 258 258 259 257 255 257 257 256 256 256 255 256 252 247 244 242
244 247 249 251 252 252 254 255 255 256 256 254 255 261 269 273 274 278 280 280 282 283 286 287 286 291 296 299 300 300 295 290 295 303 307 307 307 307 306 305 307 309 308 307 307 305 304 305 304 300 292 281 272 262 256 256 257 257 257 255 255 256 255 255 256 255 254 255 254 254 250 246 243 242
242 246 248 249 251 252 254 255 256 256 255 253 257 265 272 276 278 280 280 282 284 284 286 286 283 288 294 296 295 294 293 293 297 302 304 304 306 308 307 304 304 307 308 308 308 306 304 305 306 304 297 285 275 268 258 252 250 249 249 249 250 252 254 255 255 255 254 254 253 249 246 244 241 238
241 244 246 248 249 252 254 254 255 256 252 253 261 269 275 279 280 281 282 284 285 284 284 285 284 286 290 292 293 292 291 294 298 301 301 301 304 307 306 302 302 306 308 308 307 306 304 305 305 304 300 293 282 274 265 255 249 247 246 247 247 249 252 253 253 253 253 254 254 248 242 240 237 234
240 242 245 247 249 251 252 253 253 252 250 253 264 272 277 281 282 283 285 284 283 283 284 285 286 287 288 288 289 289 291 294 298 301 303 302 302 303 303 304 306 309 309 307 303 301 301 301 300 298 296 296 291 280 270 261 255 250 246 245 244 246 249 251 251 250 250 252 253 250 244 237 232 230
238 242 244 246 247 248 249 251 249 246 247 251 255 260 266 272 277 279 280 281 281 282 284 285 285 285 286 286 287 288 292 297 300 303 303 299 298 299 301 302 305 308 308 303 299 298 299 299 297 295 292 292 292 286 277 268 261 255 248 244 243 244 246 248 249 247 246 247 247 244 243 236 228 226
237 240 243 244 246 247 248 250 247 243 246 249 251 255 262 268 272 273 273 275 278 280 282 284 284 282 283 285 287 291 296 300 302 301 297 295 296 297 297 296 298 303 304 299 296 296 297 298 296 294 292 289 290 289 283 275 266 259 252 246 243 243 245 246 245 243 242 243 242 238 237 232 225 223
235 238 241 242 245 247 247 247 245 244 248 251 255 262 269 274 277 277 275 275 275 275 278 278 277 278 281 285 290 295 300 300 299 297 297 298 297 294 292 290 293 298 298 293 293 294 296 299 297 294 292 291 290 289 285 278 268 260 253 247 244 242 242 244 242 239 239 239 237 234 232 228 221 219
234 237 239 241 243 246 246 245 245 248 251 255 261 269 275 278 279 278 277 277 277 275 275 275 279 284 289 292 296 299 300 297 296 297 297 297 294 289 288 288 291 295 294 291 290 292 296 301 299 293 293 295 292 287 284 281 270 260 253 246 243 241 239 240 238 235 236 235 233 229 228 227 220 214
233 236 238 240 242 245 245 244 246 251 255 262 269 276 279 279 279 279 281 284 286 285 286 286 290 295 296 296 296 297 296 293 293 293 292 291 289 289 290 291 292 295 295 291 288 290 296 301 297 294 297 298 295 289 285 283 273 261 253 246 243 240 237 237 235 231 232 232 230 225 224 225 220 213
231 233 235 238 241 244 244 243 247 254 262 270 276 278 280 281 283 287 292 294 290 288 289 290 290 292 292 292 293 293 292 292 293 292 290 291 290 290 291 293 295 296 295 295 293 290 294 299 296 295 300 299 297 295 290 285 277 263 252 243 240 239 235 234 232 229 229 229 226 222 222 223 220 214
228 230 234 238 243 245 244 246 252 259 265 272 276 279 282 285 290 298 303 301 297 294 295 297 297 298 298 297 296 297 296 296 295 291 290 292 292 289 290 293 295 297 296 299 300 289 289 299 300 297 300 298 295 295 293 289 282 267 254 244 239 237 235 232 230 227 228 227 223 219 221 222 219 214
229 233 236 242 247 248 247 250 257 262 265 269 273 278 284 290 300 308 309 307 308 308 310 313 312 310 310 308 307 306 303 300 295 289 289 292 291 287 288 292 296 299 301 306 307 288 287 300 302 297 299 298 294 294 295 293 285 272 257 245 240 238 234 231 228 226 226 225 221 217 220 221 217 212
228 233 237 243 249 250 249 254 259 260 263 268 274 279 287 297 306 310 311 315 321 325 327 328 326 325 324 321 319 315 309 303 296 290 289 290 289 287 289 293 296 299 303 308 307 289 290 296 294 293 297 297 296 298 300 295 288 284 270 249 240 238 234 231 228 224 224 223 219 216 219 220 215 210
224 229 234 242 247 249 251 256 258 257 261 269 275 280 289 299 305 308 316 324 327 328 332 335 336 336 333 330 328 323 317 311 303 296 293 290 289 290 292 295 293 291 298 308 306 296 296 296 294 294 291 288 292 297 298 291 284 280 275 256 241 235 233 231 227 223 222 220 217 216 219 219 213 209
224 227 233 239 243 247 253 256 255 257 260 260 266 276 288 295 299 308 319 325 326 329 336 341 340 338 337 338 339 334 330 323 312 304 297 291 292 295 295 297 294 289 296 311 309 296 295 294 292 294 290 283 285 292 295 293 284 272 270 266 249 235 230 229 226 222 220 218 214 214 219 217 210 207
224 228 234 238 239 243 250 252 252 254 251 246 255 273 285 289 297 310 318 323 330 337 342 344 341 340 341 345 347 345 342 337 326 315 305 297 301 305 301 297 294 291 297 310 306 293 291 289 286 287 287 283 283 287 291 291 283 263 271 280 262 238 228 225 224 221 218 216 211 208 213 213 209 206
224 228 231 232 233 238 243 244 244 244 242 247 262 275 282 289 303 315 320 328 338 343 344 342 341 344 347 349 352 352 351 348 341 332 321 314 317 321 316 302 289 288 296 305 305 293 286 285 284 282 281 280 281 283 284 284 278 267 277 292 272 238 223 218 220 220 217 215 210 206 208 211 208 205
223 226 225 225 229 233 234 235 238 238 238 246 260 268 279 296 310 317 326 338 343 343 343 343 346 351 352 353 355 356 355 354 351 346 339 333 335 342 343 330 302 295 300 308 313 303 286 283 283 280 276 274 275 276 278 278 278 277 283 300 286 239 216 210 217 220 216 213 209 206 207 208 205 203
220 219 218 220 222 225 228 229 229 227 225 233 247 260 279 300 316 328 339 345 343 343 345 348 352 356 356 357 359 359 360 360 357 355 353 351 352 357 2 0 342 321 320 324 331 328 305 296 294 287 279 273 270 271 274 275 276 279 286 296 286 241 213 207 212 213 210 209 209 207 206 203 200 199
218 214 211 215 218 220 223 220 215 211 208 219 236 254 274 297 327 340 344 345 344 346 350 353 355 358 359 0 2 2 4 5 4 2 1 1 2 4 8 13 14 5 354 348 349 346 328 317 316 305 287 276 271 271 273 273 278 286 290 281 262 231 214 204 197 196 202 211 212 209 207 203 201 200
214 209 207 211 215 216 213 206 202 200 201 212 227 243 266 307 336 340 344 349 347 348 352 355 357 358 360 2 5 6 8 10 10 10 7 6 9 11 11 14 18 21 20 12 2 355 346 347 349 328 299 288 289 292 289 283 288 305 307 235 213 214 205 189 182 187 202 216 216 211 207 205 203 202
207 205 205 208 208 205 202 198 195 192 196 208 221 232 259 319 335 338 346 350 347 348 352 355 357 358 360 3 5 8 11 12 13 14 13 11 12 15 16 16 16 19 23 25 24 9 8 30 44 45 43 39 16 352 2 354 339 354 31 171 188 196 187 177 180 191 200 205 208 208 205 203 202 202
200 200 203 204 201 197 195 193 190 190 197 207 214 222 264 323 329 338 346 345 343 350 356 357 358 359 360 2 5 7 12 15 15 16 17 17 17 17 19 19 17 18 21 23 26 33 22 9 29 47 55 58 62 72 68 59 61 72 98 142 164 171 171 173 182 191 191 192 195 197 199 201 202 204
195 199 200 199 197 194 192 189 188 191 198 205 208 210 258 310 319 332 338 341 348 358 2 2 2 2 1 2 4 7 10 14 16 18 19 20 21 21 22 22 21 20 22 22 23 30 38 24 341 350 43 51 54 60 63 63 68 81 103 132 148 156 164 174 184 188 188 190 190 186 188 196 203 207
196 199 199 197 195 192 190 188 188 193 199 203 202 201 236 277 302 324 335 346 359 7 8 8 8 7 6 5 6 7 10 12 15 17 18 20 22 24 25 25 23 22 23 22 21 25 35 43 49 60 78 70 55 53 57 59 62 73 95 120 139 152 163 170 174 176 179 184 185 183 183 188 196 205
201 199 199 198 195 193 191 188 190 194 197 198 198 202 225 252 281 321 343 359 9 13 13 12 11 10 10 10 9 9 10 12 14 16 18 19 21 23 25 26 26 26 27 25 22 24 30 39 46 50 52 56 53 47 47 49 52 61 78 96 117 143 160 167 170 175 182 186 186 188 190 191 195 204
205 201 200 199 196 193 192 191 193 197 196 196 203 211 220 238 266 327 5 14 16 16 16 15 13 12 12 12 12 11 12 13 14 16 18 19 20 21 23 25 26 28 30 29 26 26 29 34 39 41 42 43 40 37 40 46 51 59 71 80 96 123 147 163 177 190 199 197 190 192 197 199 199 203
209 203 200 199 196 193 193 194 196 197 197 201 210 214 216 225 246 354 25 24 20 17 17 17 15 14 13 12 12 13 13 14 15 16 17 19 20 21 22 23 24 26 30 31 30 30 31 33 36 38 38 38 34 30 32 40 44 49 60 71 82 103 125 141 161 177 186 193 193 192 196 202 202 202
211 207 202 201 198 194 194 196 197 200 204 210 215 215 213 218 224 30 34 28 20 17 18 18 17 16 15 14 13 13 13 13 15 16 17 18 20 21 21 22 23 24 26 29 29 30 32 33 35 37 38 39 39 36 36 40 42 43 49 62 75 91 106 115 135 160 172 182 189 187 188 199 201 199
205 205 203 203 200 197 197 198 199 204 210 215 217 215 212 215 219 54 36 25 16 14 16 19 19 17 16 15 14 14 14 14 14 15 16 17 19 20 21 22 23 24 25 27 29 30 31 32 34 37 39 43 52 55 52 52 52 48 48 53 62 74 86 91 103 135 154 161 166 170 175 179 178 180
200 200 200 200 198 198 199 200 202 209 214 216 217 216 212 215 226 247 21 12 8 11 13 15 17 18 17 15 14 13 14 14 14 14 15 16 17 18 19 20 23 25 26 28 29 30 32 32 32 35 39 43 51 58 55 51 49 49 50 51 52 56 71 85 91 104 128 145 152 155 158 157 154 159
200 201 200 199 197 197 200 202 206 212 217 218 219 218 215 216 226 239 290 348 356 4 9 10 13 16 17 16 15 13 12 13 14 13 13 14 15 16 17 18 20 23 26 29 30 30 31 31 30 32 35 38 43 49 50 47 44 46 51 54 51 49 57 72 82 88 106 135 147 148 144 141 141 145
203 203 203 202 200 198 199 202 208 214 219 220 221 221 220 220 227 240 261 315 343 354 1 3 6 11 14 15 15 13 12 12 13 13 12 12 13 14 15 16 18 20 23 27 29 29 29 29 30 31 33 36 40 44 47 46 44 44 48 51 51 50 51 58 70 79 88 117 139 140 136 138 140 139
207 206 206 205 204 202 201 203 209 215 219 222 222 223 225 226 231 242 257 289 325 341 350 354 358 5 10 13 13 13 11 11 11 11 11 11 12 12 13 14 15 16 17 20 24 27 28 29 30 32 34 36 38 40 43 44 43 43 45 47 48 50 53 57 66 77 83 94 114 123 129 140 150 154
208 208 208 207 206 205 204 205 210 216 220 223 224 225 228 232 238 246 259 278 304 321 334 342 349 357 3 7 10 11 11 10 9 9 9 9 9 10 11 12 12 14 15 16 18 21 24 27 30 32 35 37 38 39 41 43 41 40 43 45 44 45 49 52 56 68 80 86 91 98 107 123 141 152